Wetbulb
59.50 59.66 60.27 61.18 61.63 61.44 61.21 62.09 63.06 63.30 63.81 64.06 63.76 63.97 63.91 63.06 61.55 61.78 61.11 61.56 62.28 61.71
59.85 59.67 60.52 60.92 61.32 61.60 62.21 62.58 62.99 63.61 62.85 61.87 62.37 62.12 61.86 60.90 60.56 60.81 60.64 60.84 60.16 59.07
53.21 54.25 55.60 53.68 53.18 55.27 54.53 55.86 59.66 61.16 60.59 59.81 59.43 59.40 59.35 58.93 59.29 59.11 59.08 58.90 58.47 58.38
48.77 48.78 49.53 49.21 48.98 49.43 50.32 50.46 50.25 51.16 51.67 52.00 52.30 52.89 53.26 53.54 54.08 56.79 57.39 58.13 58.27 58.22
46.23 45.81 45.37 46.76 46.41 47.21 46.85 47.31 47.46 47.58 47.34 47.57 48.18 48.73 48.92 48.92 49.42 49.53 50.04 51.09 52.19 52.43
43.28 43.12 42.92 43.04 43.32 43.37 43.12 43.31 43.51 43.65 44.20 44.89 45.58 45.98 46.48 46.42 46.45 46.65 47.06 47.35 47.49 48.43
41.25 41.91 41.67 41.06 40.36 40.09 40.20 39.93 40.53 41.15 41.31 42.23 44.01 44.32 44.49 44.65 44.74 45.13 45.80 46.54 46.77 46.98
39.62 39.74 39.67 40.07 39.69 39.65 39.68 39.34 39.14 39.16 39.14 39.63 40.10 40.33 41.69 42.91 43.43 42.81 42.62 43.63 44.91 46.35
38.02 38.17 37.89 38.34 38.07 37.75 37.69 38.12 38.52 38.10 37.61 37.33 37.43 39.40 40.35 40.69 40.93 40.90 40.78 40.84 42.05 42.70
36.77 36.04 36.28 36.71 36.98 36.50 36.52 36.48 36.44 36.28 36.00 35.77 36.10 37.79 38.54 38.88 39.31 38.97 39.09 39.26 39.29 39.57
35.81 35.13 35.34 35.63 35.17 35.44 35.57 35.12 34.60 34.62 34.85 35.43 35.57 36.58 37.42 37.93 37.93 38.50 38.40 38.32 38.37 38.60
35.43 34.76 34.05 33.95 33.82 34.32 34.68 34.60 34.43 34.52 34.30 34.03 34.85 35.52 36.38 37.01 37.20 36.47 36.05 36.46 37.06 36.90
34.24 34.13 34.12 34.40 33.83 34.41 34.25 33.58 33.77 33.09 33.65 33.31 33.67 34.28 35.31 36.02 36.13 35.07 35.13 36.29 36.33 36.37
33.89 33.62 33.81 33.58 33.49 32.89 32.28 31.95 31.75 31.69 32.69 32.89 33.22 33.78 34.38 35.12 34.89 34.41 34.34 34.50 34.22 34.79
MSLP
1007.54 1008.01 1008.15 1008.30 1008.29 1008.48 1008.84 1009.06 1009.32 1009.49 1009.58 1009.67 1009.88 1010.06 1010.28 1010.48 1010.70 1010.67 1010.82 1010.80 1010.92 1011.23
1007.39 1007.91 1007.99 1008.08 1008.24 1008.37 1008.53 1008.71 1008.88 1009.05 1009.14 1009.39 1009.52 1009.56 1009.68 1009.81 1009.85 1009.90 1010.09 1010.38 1010.69 1011.27
1008.95 1009.00 1009.06 1009.15 1009.39 1009.21 1009.26 1009.22 1009.02 1009.01 1009.23 1009.57 1009.63 1009.51 1009.52 1009.47 1009.53 1009.64 1009.64 1009.91 1010.33 1010.66
1009.84 1009.98 1010.31 1009.98 1010.48 1010.42 1010.09 1010.11 1010.46 1010.29 1009.66 1010.33 1010.12 1010.24 1010.22 1010.40 1010.26 1009.98 1009.89 1009.85 1009.90 1010.05
1011.26 1011.39 1011.83 1011.63 1011.20 1011.75 1010.93 1010.89 1010.87 1011.07 1010.90 1010.88 1011.11 1011.23 1011.02 1011.23 1011.15 1011.01 1010.95 1010.91 1010.62 1010.41
1012.18 1011.93 1013.34 1012.93 1012.91 1013.48 1011.76 1011.92 1011.69 1011.82 1011.84 1011.76 1011.74 1011.76 1011.99 1011.74 1011.61 1011.83 1011.64 1011.36 1011.06 1011.23
1013.96 1014.11 1014.11 1013.85 1013.78 1012.87 1012.47 1012.43 1012.21 1012.35 1012.05 1012.45 1012.40 1012.39 1012.43 1012.22 1011.74 1011.86 1011.74 1011.56 1011.65 1011.60
1014.69 1014.50 1014.10 1013.99 1013.96 1013.35 1012.97 1013.05 1013.17 1013.09 1013.20 1013.14 1013.04 1013.21 1012.83 1012.53 1012.37 1012.36 1012.08 1011.87 1011.77 1011.71
1015.04 1014.65 1014.52 1014.40 1014.11 1013.82 1013.79 1013.77 1013.78 1013.73 1013.70 1013.63 1013.53 1013.57 1013.34 1013.13 1012.70 1012.52 1012.30 1012.08 1011.92 1011.69
1015.35 1015.19 1015.15 1014.91 1014.68 1014.52 1014.45 1014.54 1014.42 1014.35 1014.28 1014.12 1013.98 1014.02 1013.76 1013.52 1013.06 1012.93 1012.70 1012.37 1012.05 1011.70
1015.68 1015.60 1015.55 1015.34 1015.32 1015.34 1015.21 1015.00 1015.01 1014.71 1014.51 1014.43 1014.18 1014.20 1014.00 1013.71 1013.27 1013.03 1012.84 1012.57 1012.25 1011.87
1016.15 1015.93 1015.93 1015.83 1015.86 1015.71 1015.53 1015.44 1015.32 1015.23 1014.92 1014.81 1014.56 1014.64 1014.46 1014.00 1013.37 1013.09 1012.85 1012.71 1012.46 1012.30
1016.46 1016.22 1016.07 1015.99 1015.91 1015.83 1015.78 1015.74 1015.70 1015.61 1015.63 1015.49 1015.24 1015.13 1014.87 1014.35 1013.53 1013.05 1012.92 1012.59 1012.41 1012.26
1016.76 1016.62 1016.59 1016.57 1016.58 1016.61 1016.51 1016.37 1016.04 1015.82 1015.58 1015.44 1015.28 1014.89 1014.72 1014.30 1013.62 1013.12 1012.74 1012.28 1012.11 1012.03
Wind_Speed
11 9 9 9 7 7 7 7 10 12 13 14 15 13 14 12 11 12 12 16 13 10
12 10 8 9 8 8 10 8 11 12 10 9 10 11 12 11 12 11 11 10 9 7
10 9 8 9 10 7 7 8 3 5 4 4 3 2 2 1 2 7 6 6 8 7
13 13 10 11 10 8 9 10 10 8 10 8 8 8 7 7 7 3 3 2 6 7
12 14 11 10 12 9 11 11 10 8 9 9 9 8 9 7 6 7 7 7 6 6
13 15 9 10 10 3 10 9 11 10 9 9 9 9 8 7 7 5 4 5 6 6
8 8 5 6 6 9 11 10 11 9 11 9 9 11 9 7 8 7 6 6 5 6
8 8 9 9 10 11 12 11 11 11 10 10 10 9 11 9 8 8 8 7 7 7
8 9 10 9 10 11 10 9 9 10 9 9 6 14 14 11 7 8 8 9 9 9
7 8 7 8 9 9 10 9 9 9 9 9 7 14 14 14 7 8 9 9 10 10
7 7 7 8 8 8 7 8 7 8 9 8 7 15 16 17 8 7 8 10 11 12
5 5 5 6 6 7 7 6 7 7 8 9 9 15 16 14 9 9 10 10 11 13
6 6 7 8 8 9 9 8 7 8 7 8 7 8 11 11 7 8 7 9 9 11
7 6 7 5 4 5 5 5 5 5 5 5 5 7 11 12 8 8 9 8 8 8
Wind_Direction
199 209 219 219 229 231 237 240 241 235 236 237 241 233 228 226 233 232 228 227 223 226
196 206 213 233 245 254 246 239 237 243 242 238 242 240 230 225 223 222 210 208 210 207
62 55 56 55 47 35 59 40 323 186 137 124 74 52 115 35 266 215 210 207 209 208
58 47 40 67 44 38 60 53 50 44 65 53 53 48 44 39 27 351 320 235 213 224
60 54 30 46 63 14 58 56 52 45 55 53 47 39 53 43 32 25 18 6 354 18
58 51 22 26 52 54 69 62 58 53 50 45 41 38 30 36 39 23 20 11 5 345
55 85 90 77 60 50 54 51 49 46 51 42 46 37 24 15 26 10 1 4 345 329
69 70 64 60 56 57 58 54 50 49 47 40 41 26 17 11 8 360 355 354 346 332
57 52 49 47 46 49 53 52 47 45 42 37 32 14 14 7 354 353 345 338 335 332
60 62 48 43 46 42 39 34 37 33 25 20 21 8 3 357 348 343 338 336 331 325
41 45 39 44 41 34 30 28 20 16 12 2 4 0 358 351 345 336 336 332 328 322
31 51 46 44 35 28 20 16 8 4 2 356 352 357 352 348 341 336 335 336 330 334
26 24 29 21 16 8 3 353 346 342 338 339 336 351 340 336 328 325 326 318 322 324
21 19 19 8 354 337 331 324 321 323 327 327 341 343 344 344 337 342 327 326 328 322